Home > Weather > Whistler > Past weeks

Flag for Canada Past Weather in Whistler, British Columbia, Canada — Yesterday and Last 2 Weeks

Now
83 °F

Warm.


Feels Like: 83 °F
Forecast: 57 / 88 °F
Wind: 7 mph from South

Location: Squamish Airport

Current Time: Jul 27, 2016 at 6:16:52 PM

Latest Report: Jul 27, 2016 at 5:00 PM


Visibility: N/A

Pressure: 30.01 "Hg (27.80 "Hg at 674m altitude)

Humidity: 46%

Dew Point: 60 °F

Location of WhistlerLocation

Past Weather in Whistler — Graph

°F

Whistler Temperature Yesterday

Maximum temperature yesterday: 79 °F (at 4:00 PM)
Minimum temperature yesterday: 60 °F (at 6:00 AM)
Average temperature yesterday: 69 °F

High & Low Weather Summary for the Past Weeks

 TemperatureHumidityPressure
High83 °F (Jul 27, 5:00 PM)100% (Jul 17, 7:00 AM)30.22 "Hg (Jul 17, 7:00 AM)
Low49 °F (Jul 15, 6:00 AM)30% (Jul 21, 6:00 PM)29.86 "Hg (Jul 17, 5:00 PM)
Average65 °F76%30.06 "Hg
* Reported Jul 12 5:00 PM — Jul 27 5:00 PM, Whistler, Weather by CustomWeather, © 2016

Note: Actual official high and low records may vary slightly from our data, if they occured in-between our weather recording intervals... More about our weather records

Advertising

Whistler Weather History for the Previous 24 Hours

Scroll right to see more
 ConditionsComfort  
Time TempWeatherWind HumidityBarometerVisibility
5:00 PM
Wed, Jul 27
83 °FWarm.7 mph46%30.01 "HgN/A
4:00 PM82 °FWarm.8 mph48%30.02 "HgN/A
3:00 PM80 °FWarm.8 mph50%30.03 "HgN/A
2:00 PM80 °FWarm.9 mph52%30.06 "HgN/A
1:00 PM79 °FWarm.7 mph54%30.07 "HgN/A
12:00 PM76 °FMild.9 mph57%30.08 "HgN/A
11:00 AM76 °FMild.7 mph60%30.09 "HgN/A
10:00 AM74 °FMild.3 mph63%30.10 "HgN/A
9:00 AM70 °FMild.1 mph69%30.11 "HgN/A
8:00 AM65 °FMild.2 mph81%30.11 "HgN/A
7:00 AM60 °FCool.1 mph93%30.11 "HgN/A
6:00 AM59 °FCool.2 mph94%30.10 "HgN/A
5:00 AM59 °FCool.1 mph94%30.09 "HgN/A
4:00 AM59 °FCool.1 mph93%30.09 "HgN/A
3:00 AM60 °FCool.No wind92%30.09 "HgN/A
2:00 AM61 °FCool.No wind92%30.08 "HgN/A
1:00 AM61 °FCool.No wind92%30.09 "HgN/A
12:00 AM63 °FMild.No wind87%30.09 "HgN/A
11:00 PM
Tue, Jul 26
64 °FMild.1 mph83%30.08 "HgN/A
10:00 PM66 °FMild.No wind79%30.06 "HgN/A
9:00 PM71 °FMild.5 mph68%30.04 "HgN/A
8:00 PM72 °FMild.8 mph63%30.02 "HgN/A
7:00 PM76 °FMild.8 mph56%30.01 "HgN/A
6:00 PM78 °FWarm.8 mph53%30.01 "HgN/A
Weather by CustomWeather, © 2016

See weather overviewHow to use our weather pages